Notices

What's New in latest Release from April 7th, 2021:

- Updated Glossary, including Speed of Maximum Gust, and Total Hourly Precipitation

- Updated national and regional climate services offices contacts and prices information

- Addition of station inventory lists for 1981-2010, 1971-2000, and 1961-1990 Normals.

If you haven't already, please take our survey and provide feedback about our website: https://eccc.sondage-survey.ca/f/LanguageSelection.aspx?s=442ca660-fcf1-47c0-95a9-59707d6fd709

Hourly Data Report for April 23, 2017

MIRAMICHI RCS
NEW BRUNSWICK

47°00'34.000" N
65°27'54.000" W
33.00 m
8100989
71744
ACQ

Download Data

Hourly Data (April 2017)
Hourly Data Report for April 23, 2017
TIME
LST
Temp Definition
°C
Dew Point Definition
°C
Rel Hum Definition
%
Precip. Amount Definition
mm

Wind Dir Definition
10's deg

Wind Spd Definition
km/h
Visibility Definition
km
Stn Press Definition
kPa
Hmdx Definition


Wind Chill Definition


Weather Definition


00:00 -1.1 -1.7 95 0.5 1 4   101.12   -2 LegendNANA
01:00 -1.1 -1.7 95 0.0 1 4   101.04   -2 LegendNANA
02:00 -1.3 -2.1 94 0.2 36 3   100.98   -2 LegendNANA
03:00 -1.2 -2.0 94 0.0 33 3   100.98   -2 LegendNANA
04:00 -1.2 -2.1 94 0.0 33 3   100.97   -2 LegendNANA
05:00 -1.1 -2.1 94 0.0 28 3   100.97   -2 LegendNANA
06:00 -0.9 -2.0 93 0.0 28 1   101.00   -1 LegendNANA
07:00 -0.4 -1.6 92 0.0 26 2   101.06   -1 LegendNANA
08:00 0.6 -0.9 90 1.2 28 5   101.11     LegendNANA
09:00 2.4 -0.3 82 0.0 31 3   101.07     LegendNANA
10:00 3.1 -0.9 75 0.0 30 9   101.07     LegendNANA
11:00 4.3 0.1 74 0.0 34 6   101.05     LegendNANA
12:00 5.1 -0.1 69 0.0 32 7   101.03     LegendNANA
13:00 5.6 0.1 68 0.0 27 10   101.02     LegendNANA
14:00 6.2 0.4 66 0.0 28 9   101.02     LegendNANA
15:00 7.2 -0.1 60 0.0 29 14   100.96     LegendNANA
16:00 8.3 0.7 59 0.0 26 13   100.91     LegendNANA
17:00 8.5 0.5 57 0.0 25 17   100.91     LegendNANA
18:00 8.2 0.9 60 0.0 23 16   100.91     LegendNANA
19:00 6.5 0.9 67 0.0 21 13   100.90     LegendNANA
20:00 5.0 0.7 73 0.0 20 12   100.92     LegendNANA
21:00 4.5 0.6 76 0.0 21 11   100.92     LegendNANA
22:00 4.7 1.0 77 0.0 21 7   100.92     LegendNANA
23:00 5.4 1.4 75 0.0 23 10   100.90     LegendNANA

Notes on Data Quality.

Legend

  • E = Estimated
  • M = Missing
  • NA = Not Available*
  • [empty] = Indicates an unobserved value
Date modified: